www.pogodaiklimat.ru

Погода и климат >> Архив погоды >> Индия >> Naliya


ПОГОДА в Naliya

  • Прогноз погоды в Naliya
  • Монитор погоды в Naliya
  • Климат города

АРХИВ ПОГОДЫ в Naliya

Время (UTC), дата Ветер
(напр.,м/с)
 
Видим.   Явления Облачность Т
(С)
Тd
(С)
f
(%)
Тe
(С)
Тes
(С)
Комфортность P
(гПа)
Po
(гПа)
Тmin
(С)
Tmax
(С)
R
(мм)
R24
(мм)
S
(см)
06 17.06 ЮЗ 6 10 км 6/6 600 м
[Cu Sc]
+32.8 +26.1 68 +49 +52 опасность
перегрева
1002.8 1003.0
09 17.06 ЮЗ 5 10 км 5/5 600 м
[Cu Sc]
+34.0 +27.1 67 +52 +57 опасность
перегрева
1000.8 1001.0
12 17.06 ЮЗ 5 10 км 5/5 600 м
[Cu Sc]
+32.6 +26.2 69 +49 +50 опасность
перегрева
999.8 1000.0 +34.4
15 17.06 ЮЗ 2 4000 м 3/3 600 м
[Sc]
+30.2 +25.7 77 +45 +45 опасность
перегрева
1000.2 1000.0
18 17.06 ЮЗ 3 4000 м 3/3 600 м
[Sc]
+30.0 +26.1 80 +45 +45 опасность
перегрева
1000.9 1001.0
21 17.06 ЮЗ 4 4000 м 4/4
[Sc]
+30.0 +26.4 81 +46 +46 опасность
перегрева
999.6 1000.0
00 18.06 ЮЗ 3 4000 м 3/3 600 м
[Sc]
+29.4 +25.7 81 +44 +44 опасность
перегрева
999.6 1000.0
03 18.06 ЮЗ 4 10 км 4/4 600 м
[Cu Sc]
+31.0 +26.6 77 +47 +50 опасность
перегрева
1001.5 1002.0 +29.0
06 18.06 ЮЗ 4 10 км 5/5 600 м
[Cu Sc]
+32.8 +26.1 68 +49 +55 опасность
перегрева
1002.1 1002.0
09 18.06 З 3 10 км 4/4 600 м
[Sc]
+35.0 +25.8 59 +50 +60 опасность
перегрева
1001.2 1001.0
12 18.06 ЮЗ 4 10 км 3/3 600 м
[Sc]
+32.6 +26.2 69 +49 +51 опасность
перегрева
999.9 1000.0 +35.4
15 18.06 З 2 4000 м 3/3 600 м
[Sc]
+30.4 +25.6 76 +45 +45 опасность
перегрева
1000.6 1001.0
18 18.06 З 2 4000 м ясно +29.8 +25.9 80 +45 +45 опасность
перегрева
1002.5 1003.0
21 18.06 ЮЗ 2 4000 м ясно +29.4 +25.4 79 +43 +43 опасность
перегрева
1000.6 1001.0
00 19.06 ЮЗ 2 4000 м ясно +29.0 +25.3 80 +42 +42 опасность
перегрева
1000.8 1001.0
03 19.06 З 2 10 км 6/6 600 м
[Cu Sc]
+30.8 +26.0 76 +46 +49 опасность
перегрева
1002.9 1003.0 +28.4
06 19.06 З 2 10 км 3/3 600 м
[Sc]
+33.8 +26.3 65 +50 +65 опасность
перегрева
1002.8 1003.0
09 19.06 ЮЗ 3 10 км ясно +35.0 +26.1 60 +51 +67 опасность
перегрева
1001.8 1002.0
12 19.06 ЮЗ 4 10 км ясно +33.0 +26.9 70 +51 +54 опасность
перегрева
1000.8 1001.0 +35.6
15 19.06 З 2 4000 м 3/3 600 м
[Sc]
+30.4 +25.9 77 +45 +45 опасность
перегрева
1000.8 1001.0
18 19.06 З 2 4000 м 4/4 600 м
[Sc]
+30.0 +26.1 80 +45 +45 опасность
перегрева
1002.4 1002.0
21 19.06 З 2 4000 м 1/1 600 м
[Sc]
+29.6 +26.0 81 +44 +44 опасность
перегрева
1001.6 1002.0
00 20.06 З 2 4000 м ясно +29.4 +25.7 81 +44 +44 опасность
перегрева
1001.3 1001.0
03 20.06 З 3 10 км 3/0 2000 м
[Ac cast]
+31.0 +26.3 76 +47 +51 опасность
перегрева
1003.0 1003.0 +28.8
06 20.06 З 3 10 км 6/6 600 м
[Sc diur, vesp]
+33.6 +24.9 60 +47 +53 опасность
перегрева
1003.5 1004.0
09 20.06 З 3 10 км 6/5 600 м
[Sc]
+34.4 +25.1 59 +48 +56 опасность
перегрева
1002.0 1002.0
12 20.06 З 3 10 км 6/5 600 м
[Sc]
+32.8 +25.5 66 +48 +50 опасность
перегрева
1000.6 1001.0 +35.4
15 20.06 З 2 4000 м 3/3 600 м
[Sc]
+30.2 +25.7 77 +45 +45 опасность
перегрева
1001.3 1001.0
18 20.06 З 2 4000 м 1/1 600 м
[Sc]
+30.0 +25.8 78 +45 +45 опасность
перегрева
1002.4 1002.0
21 20.06 З 2 4000 м 3/3 600 м
[Sc]
+29.6 +26.0 81 +44 +44 опасность
перегрева
1001.5 1002.0
00 21.06 штиль 0 4000 м 1/1 600 м
[Sc]
+29.4 +25.7 81 +44 +44 опасность
перегрева
1001.7 1002.0
03 21.06 З 2 10 км 3/3 600 м
[Sc]
+31.0 +25.7 73 +46 +50 опасность
перегрева
1002.5 1003.0 +28.6
06 21.06 З 2 10 км 5/5 600 м
[Sc]
+33.4 +25.2 62 +47 +57 опасность
перегрева
1002.9 1003.0
09 21.06 З 2 10 км 6/6 600 м
[Sc diur, vesp]
+33.8 +25.4 62 +48 +56 опасность
перегрева
1001.4 1001.0
12 21.06 З 2 10 км 6/6 600 м
[Sc diur, vesp]
+32.6 +25.6 67 +48 +49 опасность
перегрева
999.9 1000.0 +35.0
15 21.06 З 2 4000 м 5/5 600 м
[Sc]
+30.6 +25.8 76 +46 +46 опасность
перегрева
1000.7 1001.0
18 21.06 З 2 4000 м 3/3 600 м
[Sc]
+30.0 +26.1 80 +45 +45 опасность
перегрева
1001.9 1002.0
21 21.06 З 2 4000 м 3/3 600 м
[Sc]
+29.6 +26.2 82 +45 +45 опасность
перегрева
1001.2 1001.0
00 22.06 штиль 0 4000 м 3/3 600 м
[Sc]
+29.2 +26.1 83 +44 +44 опасность
перегрева
1001.3 1001.0
03 22.06 З 2 10 км 4/4 600 м
[Sc]
+31.0 +25.7 73 +46 +49 опасность
перегрева
1001.9 1002.0 +28.2
06 22.06 З 3 10 км 6/6 600 м
[Sc diur, vesp]
+33.8 +25.1 61 +48 +55 опасность
перегрева
1002.1 1002.0
09 22.06 ЮЗ 3 10 км 6/6 600 м
[Sc diur, vesp]
+33.8 +25.4 62 +48 +55 опасность
перегрева
1000.9 1001.0
12 22.06 ЮЗ 3 10 км 6/6 600 м
[Sc diur, vesp]
+33.2 +25.6 64 +48 +50 опасность
перегрева
999.0 999.0 +35.0
15 22.06 З 2 4000 м 6/6 600 м
[Sc]
+30.8 +26.3 77 +47 +47 опасность
перегрева
1000.3 1000.0
18 22.06 З 2 4000 м 5/1 600 м
[Sc]
+30.4 +26.2 78 +46 +46 опасность
перегрева
1001.8 1002.0
21 22.06 З 2 4000 м 4/4 600 м
[Sc]
+30.0 +26.1 80 +45 +45 опасность
перегрева
1001.0 1001.0
00 23.06 штиль 0 4000 м 4/4 600 м
[Sc]
+29.4 +25.4 79 +43 +43 опасность
перегрева
1000.2 1000.0
03 23.06 ЮЗ 2 10 км 3/3 600 м
[Sc]
+31.0 +25.7 73 +46 +50 опасность
перегрева
1000.8 1001.0 +28.2
06 23.06 З 2 10 км 6/6 600 м
[Sc diur, vesp]
+33.8 +24.4 58 +46 +54 опасность
перегрева
1001.7 1002.0
09 23.06 З 2 10 км 6/6 600 м
[Sc diur, vesp]
+35.0 +24.9 56 +48 +56 опасность
перегрева
1000.4 1000.0
12 23.06 З 2 10 км 5/5 600 м
[Sc]
+33.4 +25.6 64 +48 +51 опасность
перегрева
999.4 999.0 +35.2
15 23.06 З 2 4000 м 5/5 600 м
[Sc]
+30.8 +26.0 76 +46 +46 опасность
перегрева
1000.5 1001.0
18 23.06 ЮЗ 2 4000 м 5/5 600 м
[Sc]
+30.0 +25.8 78 +45 +45 опасность
перегрева
1001.2 1001.0
21 23.06 З 2 4000 м 4/4 600 м
[Sc]
+29.8 +25.6 78 +44 +44 опасность
перегрева
999.9 1000.0
00 24.06 штиль 0 4000 м 3/3 600 м
[Sc]
+29.0 +25.0 79 +42 +42 опасность
перегрева
1000.0 1000.0

 

Местоположение метеостанции Naliya (Gujarat, Индия): широта 23.25 долгота 68.85 высота над уровнем моря 21 м.

В архиве по умолчанию представлена погода в Naliya за последнюю неделю. Архивные данные за месяц целиком и за предыдущие месяцы, начиная с января 2011 года, Вы можете получить, выбрав интересующий диапазон дат из раскрывающегося списка и нажав кнопку "Ввод!".


*Определитесь, кто Вы:
робот инопланетянин человек

Внимание! Время в таблицах - всемирное. Для получения местного времени необходимо прибавить поправку, которая в Naliya равна 5.5 ч.

Смотрите также архив погоды в соседних городах и на ближайших метеорологических станциях:

Погода в Mandvi (Gujarat, Индия) (64 км)
Погода в Bhuj-Rudramata (Gujarat, Индия) (84 км)
Погода в Okha (Gujarat, Индия) (90 км)
Погода в Dwarka (Gujarat, Индия) (101 км)
Погода в Kandla (Gujarat, Индия) (129 км)
Погода в New Kandla (Gujarat, Индия) (143 км)
Погода в Badin (Пакистан) (154 км)
Погода в Porbandar (Gujarat, Индия) (197 км)
Погода в Sakrand (Пакистан) (217 км)
Погода в Rajkot (Gujarat, Индия) (224 км)

Пояснения к столбцам:

Ветер - указаны скорость ветра в м/с - средняя за 10 мин, порывы в срок и между сроками (в фигурных скобках) и направление, откуда дует ветер: С - северный, СВ - северо-восточный, В - восточный, ЮВ - юго-восточный, Ю - южный, ЮЗ - юго-западный, З - западный, СЗ - северо-западный.
Видимость - горизонтальная дальность видимости в метрах или километрах. При видимости от 1 до 10 км при отсутствии осадков обычно наблюдается дымка, при ухудшении видимости до 1 км и менее - туман. В сухую погоду видимость может ухудшаться дымом, пылью или мглою.
Явления - указаны атмосферные явления, наблюдавшиеся в срок или в последний час перед сроком; фигурными скобками обозначены явления, наблюдавшиеся между сроками (за 1-3 часа до срока); квадратными скобками обозначены град или гололедные отложения с указанием их диаметра в мм.
Облачность - указаны через наклонную черту общая и нижняя облачность в баллах и высота нижней границы облаков в метрах; квадратными скобками обозначены формы облаков: Ci - перистые, Cs - перисто-слоистые, Cc - перисто-кучевые, Ac - высококучевые, As - высокослоистые, Sc - слоисто-кучевые, Ns - слоисто-дождевые, Cu - кучевые, Cb - кучево-дождевые. Подробнее классификацию облаков см. в Атласе облаков (PDF).
T - Температура воздуха - температура, измеренная на высоте 2 м над землей.
Td - Температура точки росы - температура, при понижении до которой содержащийся в воздухе водяной пар достигнет насыщения.
f - Относительная влажность воздуха - влажноcть воздуха, измеренная на высоте 2 м над землей.
Te - Эффективная температура - температура, которую ощущает одетый по сезону человек в тени. Характеристика душности погоды. При расчете учитывается влияние влажности воздуха и скорости ветра на теплоощущения человека.
Tes - Эффективная температура на солнце - температура, которую ощущает человек, с поправкой на солнечный нагрев. Характеристика знойности погоды. Зависит от высоты солнца над горизонтом, облачности и скорости ветра. Ночью, в пасмурную погоду, а также при ветре 12 м/с и более поправка равна нулю.
P - Атмосферное давление - приведенное к уровню моря атмосферное давление.
Po - Атмосферное давление - измеренное на уровне метеостанции атмосферное давление.
Tmin - Минимальная температура - минимум температуры воздуха на высоте 2 м над землей.
Tmax - Максимальная температура - максимум температуры воздуха на высоте 2 м над землей.
R - Количество осадков - Количество выпавших осадков за период времени, мм. При наведении курсора мыши на число - период времени, за который выпало указанное количество осадков.
R24 - Количество осадков - Количество выпавших осадков за 24 часа, мм.
S - Снежный покров - Высота снежного покрова, см. При наведении курсора мыши на число - состояние снежного покрова и степень покрытия местности в баллах.